Regional Weather Roundup
Issued by NWS

Home | Current Version | Previous Version | Graphics & Text | Print | Product List | Glossary On
Versions: 1 2 3 4 5 6 7 8 9 10 11 12 13 14 15 16 17 18 19 20 21 22 23 24 25 26 27 28 29 30 31 32 33 34 35 36 37 38 39 40 41 42 43 44 45 46 47 48 49 50
000
ASUS43 KTOP 020608
RWRKS

WEATHER ROUNDUP FOR KANSAS
NATIONAL WEATHER SERVICE GOODLAND KS
1200 AM CST FRI DEC 02 2016

NOTE:  "FAIR" INDICATES FEW OR NO CLOUDS BELOW 12,000 FEET WITH NO
SIGNIFICANT WEATHER AND/OR OBSTRUCTIONS TO VISIBILITY.

KSZ001>006-013>018-027>032-041>047-020700-
NORTHWEST KANSAS

CITY           SKY/WX    TMP DP  RH WIND       PRES   REMARKS
GOODLAND       CLEAR     20   8  60 W9        30.06R
6HR MIN TEMP:  16; 6HR MAX TEMP:  36;

HAYS           CLEAR     28  16  60 CALM      30.09R
HILL CITY      CLEAR     25  14  63 W3        30.09R
6HR MIN TEMP:  19; 6HR MAX TEMP:  31;

RUSSELL        CLEAR     26  16  65 SW7       30.08R
6HR MIN TEMP:  24; 6HR MAX TEMP:  38;

$$

KSZ061>065-074>080-084>089-020700-
SOUTHWEST KANSAS

CITY           SKY/WX    TMP DP  RH WIND       PRES   REMARKS
DODGE CITY     CLOUDY    30  14  51 E7        30.07S
6HR MIN TEMP:  25; 6HR MAX TEMP:  39;

ELKHART          N/A     26   5  40 E7          N/A
GARDEN CITY    CLOUDY    30  11  45 S3        30.07R
6HR MIN TEMP:  26; 6HR MAX TEMP:  41;

GREAT BEND     CLEAR     24  15  68 SW5       30.09R
LIBERAL        CLOUDY    25   5  42 CALM      30.07R
PRATT          CLEAR     26  15  63 N3        30.09S
6HR MIN TEMP:  25; 6HR MAX TEMP:  38;

$$

KSZ066>073-081>083-090>101-020700-
SOUTHEAST KANSAS

CITY           SKY/WX    TMP DP  RH WIND       PRES   REMARKS
CHANUTE        CLOUDY    41  28  60 E3        30.11R
6HR MIN TEMP:  30; 6HR MAX TEMP:  41;

COFFEYVILLE    CLOUDY    40  31  70 NE5       30.11R
6HR MIN TEMP:  35; 6HR MAX TEMP:  43;

HUTCHINSON     PTCLDY    27  20  75 CALM      30.10R
6HR MIN TEMP:  24; 6HR MAX TEMP:  33;

MEDICINE LODGE   N/A     29  18  63 N6        30.08R
NEWTON         CLEAR     34  20  56 E7        30.10R
PARSONS        CLOUDY    42  29  59 CALM      30.12R
6HR MIN TEMP:  34; 6HR MAX TEMP:  43;

WICHITA INTL   PTCLDY    38  24  57 N5        30.09R
6HR MIN TEMP:  34; 6HR MAX TEMP:  46;

WICHITA JABRA  CLEAR     31  22  69 N5        30.10R
6HR MIN TEMP:  31; 6HR MAX TEMP:  42;

WICHITA MCCONL CLEAR     32  24  71 NE8       30.09R
WINFIELD       CLEAR     41  26  55 E6        30.08R
6HR MIN TEMP:  41; 6HR MAX TEMP:  48;

$$

KSZ007>012-019>026-033>040-048>060-102>105-020700-
NORTHEAST KANSAS

CITY           SKY/WX    TMP DP  RH WIND       PRES   REMARKS
CONCORDIA      CLEAR     25  19  78 CALM      30.10R
6HR MIN TEMP:  25; 6HR MAX TEMP:  39;

EMPORIA        CLOUDY    32  26  78 W3        30.11R
6HR MIN TEMP:  30; 6HR MAX TEMP:  41;

LAWRENCE       CLEAR     20  18  92 N3        30.12R
6HR MIN TEMP:  18; 6HR MAX TEMP:  32;

MANHATTAN      CLEAR     23  19  85 CALM      30.12R
6HR MIN TEMP:  21; 6HR MAX TEMP:  36;

MARYSVILLE     CLEAR     25  21  86 CALM      30.11R
OLATHE IND     CLEAR     26  22  84 S3        30.11S
6HR MIN TEMP:  26; 6HR MAX TEMP:  38;

OLATHE EXE     CLEAR     33  22  63 NW3       30.10S
6HR MIN TEMP:  27; 6HR MAX TEMP:  36;

SALINA         CLEAR     28  20  71 CALM      30.12R
6HR MIN TEMP:  26; 6HR MAX TEMP:  38;

TOPEKA BILLARD CLEAR     27  22  81 CALM      30.12R
6HR MIN TEMP:  25; 6HR MAX TEMP:  38;

TOPEKA FORBES  CLEAR     23  18  81 W3        30.11R
6HR MIN TEMP:  23; 6HR MAX TEMP:  36;

$$




USA.gov is the U.S. government's official web portal to all federal, state and local government web resources and services.